STARLINK-31290, 59085

Orbit data source: Space-Track

STARLINK-31290, 59085 is a payload satellite owned by SpaceX/Seattle (US) in LEO that was launched on Thu, 29 Feb 2024 UTC via an FALCON 9 launch vehicle from the Air Force Eastern Test Range (AFETR). Payload-class satellites include a variety of spacecraft equipped with specific instruments for various scientific and technological missions. These include communications satellites like Starlink; space stations such as the ISS; scientific satellites like the Hubble; Earth observation satellites from companies like Planet Labs, Umbra, and HawkEye 360; GPS; miniature CubeSats for education and research; and military/defense satellites.

Loading next visibility...
Identifier
59085, 2024-041M
Orbit
LEO
Country
Flag of USUS
Related business
Manufacturer
SpaceX/Seattle
Mission
Operational Commercial Communications
Bus & Motor
STARLINK V2M, Unknown motor
Mass
730 kg wet, ~700 kg dry
Launch date (UTC)
2024-02-29 (2 years ago)
Launch vehicle
FALCON 9
Launch site
Air Force Eastern Test Range (AFETR)
Object type
Payload
Rocket body
Debris
Shape & HBR
Box + 2 Pan, 17.7 m
Radar Cross Section
33.884 m², Large (>1 m²)

Expand to show TLE details & history
Last TLE update: 2 days ago

TLE from 2 days ago
0 STARLINK-31290
1 59085U 24041M   26171.06660520  .00000440  00000-0  25520-4 0  9996
2 59085  43.0045  78.2676 0001210 276.3860  83.6853 15.27559672130238
Epoch: 2026-06-20T01:35Z
TLE epoch observation values (Epoch: 2026-06-20T01:35:54.689Z)
Latitude
-0.00007°
Longitude
146.00309°
Altitude
482.795 km
Speed
7.626 km/s
True Right ascension
05h 13m 04s
True Declination
0° 00' 00"
Sunlit
Object was in daylight at epoch
Visualization orbit readout
Latitude
Unknown
Longitude
Unknown
Altitude
Unknown
Speed
Unknown
Apparent Right ascension
Unknown
Apparent Declination
Unknown
Sunlit
N/A
Visualization observer readout
Local Sidereal Time
21:33:25
Azimuth
Unknown
Elevation
Unknown
Doppler factor
Unknown
Orbital elements
Apogee altitude
485.885 km
Perigee altitude
484.224 km
Semi-major axis
6,863.191 km
Eccentricity
0.00012
Inclination
43.0045°
RAAN
78.2676°
Arg. of periapsis
276.386°
True anomaly
83.69908°
Mean anomaly
83.6853°
Eccentric anomaly
83.69219°
Mean motion
3.81728 °/min
Orbital period
94.31 mins
BSTAR
0.00002552
Loading maneuver chart data...
Computing Atmospheric mass density...
Loading historical data...
Loading historical data...
Loading historical data...
Loading historical data...
Loading historical data...
Loading historical data...
Loading historical data...

Documentation

Showing up to 5 results
|